Location: Bílinka
(49.3579°N, 14.3767°E)
Time: 20:12:37
(UTC+00:00)

PSLV R/B - Pass Details

Date: 28 March 2025
Orbit: 410 x 442 km, 97.7° (Epoch: 28 April)

Event Time Altitude Azimuth Distance (km) Brightness Sun altitude
Exits shadow 20:12:00 32° 345° (NNW) 788 5.0 -25.1°
Drops below altitude 10° 20:13:54 10° 346° (NNW) 1,560 6.8 -25.4°
Sets 20:15:55 0° 347° (NNW) 2,425 7.9 -25.6°
